Regional Weather Roundup
Issued by NWS

Home | Current Version | Previous Version | Text Only | Print | Product List | Glossary Off
Versions: 1 2 3 4 5 6 7 8 9 10 11 12 13 14 15 16 17 18 19 20 21 22 23 24 25 26 27 28 29 30 31 32 33 34 35 36 37 38 39 40 41 42 43 44 45 46 47 48 49 50

000
ASUS43 KOAX 260810
RWRNE

WEATHER ROUNDUP FOR NEBRASKA
NATIONAL WEATHER SERVICE OMAHA NE
300 AM CDT SAT JUL 26 2014

NOTES: SATELLITE DATA IS BEING USED TO AUGMENT CLOUD COVER ABOVE
       12000 FEET.
       "FAIR" INDICATES FEW OR NO CLOUDS BELOW 12,000 FEET WITH NO
       SIGNIFICANT WEATHER AND/OR OBSTRUCTIONS TO VISIBILITY.

  * THESE STATIONS DO NOT REPORT WEATHER SUCH AS RAIN...SNOW OR FOG.

NEZ001>004-019>022-054>056-260900-
NEBRASKA PANHANDLE

CITY           SKY/WX    TMP DP  RH WIND       PRES   REMARKS
SCOTTSBLUFF    CLEAR     63  58  83 E5        29.92F
ALLIANCE       CLEAR     64  57  78 S8        29.90F
CHADRON        CLEAR     71  54  54 MISG      29.85R
KIMBALL        CLEAR     64  56  75 SW10      30.01F
SIDNEY         CLEAR     68  54  60 SW9       29.99S
$$

NEZ057>060-069>072-079>082-260900-
SOUTHWEST NEBRASKA

CITY           SKY/WX    TMP DP  RH WIND       PRES   REMARKS
NORTH PLATTE   PTCLDY    72  66  81 S8        29.86R
IMPERIAL       PTCLDY    72  64  76 S6        29.93R
LEXINGTON      MOCLDY    74  70  87 S7        29.86S
MCCOOK         CLOUDY    75  66  73 S10       29.91S
OGALLALA       PTCLDY    69  64  83 S3        29.91R
$$

NEZ005>010-023>029-035>040-094-260900-
NORTH CENTRAL NEBRASKA

CITY           SKY/WX    TMP DP  RH WIND       PRES   REMARKS
VALENTINE      PTCLDY    70  68  93 E9        29.84F
AINSWORTH      PTCLDY    68  68  99 E9        29.85F FOG
BROKEN BOW     PTCLDY    67  65  93 N3        29.84F
O`NEILL        PTCLDY    71  67  86 NE7       29.84S
ORD            PTCLDY    71  69  93 CALM      29.82R
THEDFORD       CLEAR     69  67  91 CALM      29.87R
$$

NEZ041-046>049-061>064-073>077-083>087-260900-
SOUTH CENTRAL NEBRASKA

CITY           SKY/WX    TMP DP  RH WIND       PRES   REMARKS
GRAND ISLAND   MOCLDY    75  72  90 SE5       29.83S
AURORA         MOCLDY    75  75 100 E6        29.82S FOG
HASTINGS       MOCLDY    77  70  79 E5        29.83F
HEBRON         PTCLDY    76  71  84 E3        29.81R
HOLDREGE       MOCLDY    73  69  86 S5        29.86S
KEARNEY *      CLOUDY    73  70  88 SE7       29.84S
YORK           PTCLDY    75  75 100 E8        29.81F FOG
$$

NEZ011>018-030>034-042>045-260900-
NORTHEAST NEBRASKA

CITY           SKY/WX    TMP DP  RH WIND       PRES   REMARKS
NORFOLK        MOCLDY    75  72  90 E7        29.80F
ALBION         MOCLDY    74  71  89 SE5       29.82R FOG
BLAIR          CLOUDY    74  71  90 NE5       29.81S
COLUMBUS *     CLOUDY    75  70  83 E10       29.81R
FREMONT        MOCLDY    77  75  92 NE3       29.82S
WAYNE          MOCLDY    70  69  96 NE3       29.83F FOG
$$

NEZ050>053-065>068-078-088>093-260900-
SOUTHEAST NEBRASKA

CITY           SKY/WX    TMP DP  RH WIND       PRES   REMARKS
LINCOLN        PTCLDY    78  75  90 N3        29.80F
OMAHA EPPLEY   MOCLDY    75  71  87 CALM      29.80F
BEATRICE       PTCLDY    75  74  94 CALM      29.80S
FALLS CITY     CLEAR     81  70  69 SW5       29.78R
NEBRASKA CITY  PTCLDY    73  73 100 NE6       29.79S FOG
PLATTSMOUTH    PTCLDY    73  70  91 NE5       29.79F
$$

NEZ044-045-051>053-067-260900-
OMAHA AREA

CITY           SKY/WX    TMP DP  RH WIND       PRES   REMARKS
OMAHA EPPLEY   MOCLDY    75  71  87 CALM      29.80F
BLAIR          CLOUDY    74  71  90 NE5       29.81S
FREMONT        MOCLDY    77  75  92 NE3       29.82S
MILLARD        PTCLDY    77  73  86 CALM      29.79F
OFFUTT AFB     PTCLDY    74  74 100 NE5       29.79F
PLATTSMOUTH    PTCLDY    73  70  91 NE5       29.79F
WAHOO          FAIR      75  72  90 NE5       29.81R FOG
$$



USA.gov is the U.S. government's official web portal to all federal, state and local government web resources and services.